Regional Weather Roundup
Issued by NWS

Home | Current Version | Previous Version | Graphics & Text | Print | Product List | Glossary On
Versions: 1 2 3 4 5 6 7 8 9 10 11 12 13 14 15 16 17 18 19 20 21 22 23 24 25 26 27 28 29 30 31 32 33 34 35 36 37 38 39 40 41 42 43 44 45 46 47 48 49 50
000
ASUS45 KPSR 220710
RWRAZ

ARIZONA HOURLY REGIONAL WEATHER ROUNDUP
NATIONAL WEATHER SERVICE PHOENIX AZ
1200 AM MST WED FEB 22 2017

NOTE: FAIR INDICATES FEW OR NO CLOUDS BELOW 12,000 FEET WITH NO
SIGNIFICANT WEATHER AND/OR OBSTRUCTIONS TO VISIBILITY.

AZZ001>003-036-220800-
NORTHWEST ARIZONA

CITY           SKY/WX    TMP DP  RH WIND       PRES   REMARKS
BULLHEAD CITY  PTCLDY    59  54  82 CALM      30.09F
KINGMAN        PTCLDY    49  44  83 NE6       30.15F
$$

AZZ004>008-015-016-018-220800-
NORTH CENTRAL ARIZONA

CITY           SKY/WX    TMP DP  RH WIND       PRES   REMARKS
GRAND CANYON   PTCLDY    34  34 100 NE6       30.23F WCI  29
PRESCOTT       CLEAR     47  40  76 S6        30.21F
FLAGSTAFF      CLOUDY    41  40  96 VRB3      30.26F
PAGE           MOCLDY    52  31  44 CALM      30.10S
$$

AZZ009>014-017-220800-
NORTHEAST ARIZONA

CITY           SKY/WX    TMP DP  RH WIND       PRES   REMARKS
WINSLOW        CLEAR     44  40  85 S6        30.21F
SAINT JOHNS    CLEAR     46  37  71 S5        30.24F
WINDOW ROCK    CLEAR     40  34  79 CALM      30.26F
$$

AZZ023-220800-
GREATER PHOENIX AREA

CITY           SKY/WX    TMP DP  RH WIND       PRES   REMARKS
PHOENIX        PTCLDY    62  54  74 SE3       30.10F
LUKE AFB       CLEAR     58  58 100 NW7       30.10F
DEER VALLEY    CLEAR     58  55  90 CALM      30.11F
SCOTTSDALE     CLEAR     59  53  80 CALM      30.15R
MESA-GATEWAY   PTCLDY    57  54  88 SE5       30.13F
$$

AZZ027-028-220800-
SOUTHWEST MARICOPA COUNTY AND PINAL COUNTY

CITY           SKY/WX    TMP DP  RH WIND       PRES   REMARKS
CASA GRANDE    NOT AVBL
GILA BEND      CLEAR     60  53  77 SE8       30.10F
$$

AZZ503-504-507>509-220800-
SOUTHEAST ARIZONA

CITY           SKY/WX    TMP DP  RH WIND       PRES   REMARKS
TUCSON         CLEAR     56  47  71 S6        30.19F
DAVIS-MONTHAN  CLEAR     52  48  84 SE9       30.18F
NOGALES        CLEAR     46  37  71 CALM      30.21F
SIERRA VISTA   CLEAR     50  38  62 S3        30.25F
DOUGLAS        CLEAR     47  35  63 CALM      30.22F
SAFFORD        CLEAR     50  38  63 E5        30.16F
$$

AZZ020-021-025-026-031-220800-
SOUTHWEST ARIZONA

CITY           SKY/WX    TMP DP  RH WIND       PRES   REMARKS
YUMA           CLEAR     61  54  77 S3        30.08F
$$

CAZ031-033-041-043-047-048-061-220800-
SOUTHERN CALIFORNIA

CITY           SKY/WX    TMP DP  RH WIND       PRES   REMARKS
DOWNTOWN L.A.  MOCLDY    58  56  93 W3        30.21F
L.A. AIRPORT   CLOUDY    57  57 100 W12       30.22F FOG
SAN DIEGO      PTCLDY    59  54  83 CALM      30.22F
BURBANK        PTCLDY    53  50  89 NW5       30.21F
ONTARIO        MOCLDY    56  49  77 W10       30.20S
RIVERSIDE      PTCLDY    56  50  80 CALM      30.21S
PALM SPRINGS   PTCLDY    61  52  72 N5        30.11F
EL CENTRO NAS  PTCLDY    60  49  66 NW6       30.10F
IMPERIAL       CLEAR     63  51  65 CALM      30.08F
BLYTHE         PTCLDY    62  56  80 NE3       30.08F
NEEDLES        PTCLDY    61  53  75 SW5       30.09F
$$

NVZ020-UTZ003-220800-
SOUTHERN NEVADA-UTAH

CITY           SKY/WX    TMP DP  RH WIND       PRES   REMARKS
LAS VEGAS      MOCLDY    61  37  41 S10G23    30.03S
SALT LAKE CITY CLOUDY    36  34  92 S7        30.08F WCI  30
$$

NMZ009-TXZ055-220800-
NEW MEXICO-WEST TEXAS

CITY           SKY/WX    TMP DP  RH WIND       PRES   REMARKS
ALBUQUERQUE    CLOUDY    50  30  46 S5        30.20F
EL PASO        CLEAR     67  28  23 W12       30.16F
$$


........................KEY........................
SKY/WX - SKY CONDITION/WEATHER
TMP    - TEMPERATURE IN FAHRENHEIT
DP     - DEW POINT IN FAHRENHEIT
RH     - RELATIVE HUMIDITY IN PERCENT
WIND   - DIRECTION AND SPEED IN MILES PER HOUR (MPH)
VRB    - VARIABLE WIND DIRECTION
PRES   - MEAN SEA LEVEL PRESSURE IN INCHES OF MERCURY
         F - FALLING PRESSURE   R - RISING PRESSURE
         S - STEADY PRESSURE
VSB    - VISIBILITY IN MILES
HX     - HEAT INDEX IN FAHRENHEIT
WCI    - WIND CHILL INDEX IN FAHRENHEIT
TC     - TEMPERATURE IN CELSIUS WHICH IS ALSO KNOWN AS
         TEMPERATURE IN CENTIGRADE
AFB    - AIR FORCE BASE
         LUKE AFB IS LUKE AIR FORCE BASE
         DAVIS-MONTHAN IS DAVIS-MONTHAN AIR FORCE BASE
NAS    - NAVAL AIR STATION
         EL CENTRO NAS IS EL CENTRO NAVAL AIR STATION
N/A    - NOT AVAILABLE




USA.gov is the U.S. government's official web portal to all federal, state and local government web resources and services.